Regional Weather Roundup
Issued by NWS

Home | Current Version | Previous Version | Graphics & Text | Print | Product List | Glossary On
Versions: 1 2 3 4 5 6 7 8 9 10 11 12 13 14 15 16 17 18 19 20 21 22 23 24 25 26 27 28 29 30 31 32 33 34 35 36 37 38 39 40 41 42 43 44 45 46 47 48 49 50
000
ASUS43 KIND 021509
RWRIN

WEATHER ROUNDUP FOR INDIANA
NATIONAL WEATHER SERVICE INDIANAPOLIS IN
1100 AM EDT THU JUL 02 2015

NOTE: "FAIR" INDICATES FEW OR NO CLOUDS BELOW 12,000 FEET WITH NO
SIGNIFICANT WEATHER AND/OR OBSTRUCTIONS TO VISIBILITY.

* - STATION DOES NOT REPORT WEATHER SUCH AS PRECIPITATION OR FOG.

+ - STATION NOT QUALITY CONTROLLED BY THE NATIONAL WEATHER SERVICE.
    USE DATA WITH CAUTION...ESPECIALLY DEWPOINT AND RELATIVE
    HUMIDITY OBSERVATIONS.

INZ001>003-010>013-019-020-021600-
NORTHWEST INDIANA

CITY           SKY/WX    TMP DP  RH WIND       PRES   REMARKS
GARY /AIRPORT/ PTSUNNY   64  59  82 NE12      29.99S
MONTICELLO +   MOSUNNY   65  58  80 E8        29.95
RENSSELAER +   SUNNY     66  61  82 N9        29.96R
VALPARAISO     SUNNY     68  54  60 NE13      29.98F

$$

LMZ046-743>745-021600-
SOUTHERN LAKE MICHIGAN

STATION/POSITION TIME  TEMP    WIND        PRES    WAVE
                       AIR SEA DIR/SP/G            HT
                 (UTC) (F)     (DEG/KT/KT) (MB)    (FT)
BURNS HARBOR     1500   62      40/ 11/ 13 1015.9S
MICHIGAN CITY    1500   60      10/ 11/ 12   N/A
5NW MICH CITY    1500   61 64   40/ 12/ 14   N/A     2

$$

INZ004-005-014>016-021>024-021600-
NORTH CENTRAL INDIANA

CITY           SKY/WX    TMP DP  RH WIND       PRES   REMARKS
ELKHART        SUNNY     68  55  64 E9        29.99F
GOSHEN           N/A     67  57  70 MISG      29.98S
PERU/GRISSOM   MOSUNNY   65  59  80 NE10      29.95R
SOUTH BEND     SUNNY     68  56  65 NE7G17    29.98F

$$

INZ006>009-017-018-025>027-021600-
NORTHEAST INDIANA

CITY           SKY/WX    TMP DP  RH WIND       PRES   REMARKS
ANGOLA *+        N/A     64  55  72 E7        30.00R
FORT WAYNE     CLOUDY    67  61  81 E12       29.97S

$$

INZ028-029-035-036-043>045-051>053-021600-
WEST CENTRAL INDIANA

CITY           SKY/WX    TMP DP  RH WIND       PRES   REMARKS
CRAWFORDSVL +  CLOUDY    63  55  73 NE6       29.94R
GREENCASTLE +  CLOUDY    68  55  64 E5        29.93R
LAFAYETTE      CLOUDY    62  56  80 NE8       29.95R
TERRE HAUTE    CLOUDY    67  59  75 NE7       29.90F

$$

INZ030>032-037>040-046>048-054>057-064-065-021600-
CENTRAL INDIANA

CITY           SKY/WX    TMP DP  RH WIND       PRES   REMARKS
ANDERSON       MOSUNNY   66  55  68 NE6       29.94F
COLUMBUS       CLOUDY    68  63  83 N6        29.91
FISHERS *+     PTSUNNY   68  63  83 NE3       29.93R
GREENWOOD *+   PTSUNNY   68  57  68 NE6       29.92R
INDIANAPOLIS   CLOUDY    69  57  65 NE9       29.91R
-EAGLE CREEK   PTSUNNY   68  58  70 NE7       29.92R
KOKOMO *+      PTSUNNY   64  57  77 NE9       29.95S
MT COMFORT *+  CLOUDY    66  59  77 NE5       29.93R
SHELBYVILLE    CLOUDY    70  61  73 VRB5      29.91S

$$

INZ033-034-041-042-049-050-058-059-021600-
EAST CENTRAL INDIANA

CITY           SKY/WX    TMP DP  RH WIND       PRES   REMARKS
MUNCIE         CLOUDY    68  61  78 E8        29.94S

$$

INZ060-061-067>069-081>083-085>088-021600-
SOUTHWEST INDIANA

CITY           SKY/WX    TMP DP  RH WIND       PRES   REMARKS
EVANSVILLE     CLOUDY    72  69  90 S6        29.89R
HUNTINGBURG *+ CLOUDY    73  70  88 SW10      29.89R

$$

INZ062-063-066-070>080-084-089>092-021600-
SOUTH CENTRAL AND SOUTHEAST INDIANA

CITY           SKY/WX    TMP DP  RH WIND       PRES   REMARKS
BLOOMINGTON    CLOUDY    70  64  81 N5        29.90R
MADISON *+     CLOUDY    70  68  94 E5        29.90F
NORTH VERNON + CLOUDY    75  75 100 CALM      29.90S
SEYMOUR +      PTSUNNY   73  72  94 CALM      29.88F

$$




USA.gov is the U.S. government's official web portal to all federal, state and local government web resources and services.